| time (UTC) | temp F | wind direction | speed MPH | gust MPH | rain 1hr in | rain 24hr in | rain mn in | humidity % | barometer mb |
| 20260905024211 | 64 | 54 | 2.0 | 2.0 | 0.00 | 0.17 | 0.17 | 97 | 1012.5 |
| 20260905023706 | 64 | 37 | 0.0 | 1.0 | 0.00 | 0.17 | 0.17 | 97 | 1012.5 |
| 20260905023206 | 64 | 0 | 0.0 | 1.0 | 0.00 | 0.17 | 0.17 | 97 | 1012.4 |
| 20260905022705 | 65 | 50 | 1.0 | 1.0 | 0.00 | 0.17 | 0.17 | 96 | 1012.4 |
| 20260905022201 | 65 | 336 | 0.0 | 0.0 | 0.00 | 0.17 | 0.17 | 95 | 1012.3 |
| 20260905021655 | 65 | 309 | 0.0 | 0.0 | 0.00 | 0.17 | 0.17 | 95 | 1012.3 |
| 20260905021150 | 65 | 309 | 0.0 | 0.0 | 0.00 | 0.17 | 0.17 | 96 | 1012.4 |
| 20260905020645 | 65 | 309 | 0.0 | 0.0 | 0.00 | 0.17 | 0.17 | 96 | 1012.3 |
| 20260905020141 | 65 | 309 | 0.0 | 0.0 | 0.00 | 0.17 | 0.17 | 96 | 1012.3 |
| 20260905015639 | 65 | 50 | 0.0 | 1.0 | 0.00 | 0.17 | 0.17 | 97 | 1012.7 |
| 20260905015133 | 65 | 37 | 0.0 | 0.0 | 0.00 | 0.17 | 0.17 | 97 | 1012.7 |
| 20260905014627 | 65 | 13 | 0.0 | 1.0 | 0.00 | 0.17 | 0.17 | 97 | 1012.6 |
| 20260905014122 | 65 | 33 | 1.0 | 2.0 | 0.00 | 0.17 | 0.17 | 97 | 1012.7 |
| 20260905013619 | 66 | 62 | 1.0 | 2.0 | 0.00 | 0.17 | 0.17 | 97 | 1012.9 |
| 20260905013114 | 66 | 50 | 0.0 | 1.0 | 0.00 | 0.17 | 0.17 | 97 | 1012.9 |
| 20260905012609 | 66 | 42 | 1.0 | 1.0 | 0.00 | 0.17 | 0.17 | 97 | 1012.7 |
| 20260905012105 | 66 | 0 | 0.0 | 1.0 | 0.00 | 0.17 | 0.17 | 96 | 1012.9 |
| 20260905011600 | 66 | 316 | 0.0 | 1.0 | 0.00 | 0.17 | 0.17 | 96 | 1012.8 |
| 20260905011057 | 66 | 0 | 0.0 | 1.0 | 0.00 | 0.17 | 0.17 | 96 | 1012.6 |
| 20260905010555 | 66 | 37 | 0.0 | 0.0 | 0.00 | 0.17 | 0.17 | 96 | 1012.6 |
| 20260905010052 | 66 | 333 | 0.0 | 1.0 | 0.00 | 0.17 | 0.17 | 96 | 1012.7 |
| 20260905005548 | 66 | 29 | 0.0 | 1.0 | 0.00 | 0.17 | 0.17 | 96 | 1012.5 |
| 20260905005043 | 66 | 25 | 1.0 | 1.0 | 0.00 | 0.17 | 0.17 | 97 | 1012.3 |
| 20260905004538 | 66 | 49 | 0.0 | 0.0 | 0.00 | 0.17 | 0.17 | 97 | 1012.4 |
| 20260905004034 | 66 | 50 | 0.0 | 1.0 | 0.00 | 0.17 | 0.17 | 96 | 1012.2 |
| 20260905003529 | 66 | 37 | 0.0 | 1.0 | 0.00 | 0.17 | 0.17 | 96 | 1012.3 |
| 20260905003025 | 67 | 8 | 2.0 | 2.0 | 0.00 | 0.17 | 0.17 | 97 | 1012.3 |
| 20260905002520 | 67 | 103 | 0.0 | 1.0 | 0.00 | 0.17 | 0.17 | 96 | 1012.3 |
| 20260905002019 | 67 | 79 | 2.0 | 2.0 | 0.00 | 0.17 | 0.17 | 96 | 1012.4 |
| 20260905001514 | 67 | 37 | 0.0 | 1.0 | 0.00 | 0.17 | 0.17 | 95 | 1012.2 |
| 20260905001008 | 67 | 326 | 0.0 | 2.0 | 0.00 | 0.17 | 0.17 | 96 | 1012.2 |
| 20260905000504 | 67 | 66 | 0.0 | 0.0 | 0.00 | 0.17 | 0.17 | 94 | 1012.1 |
| 20260905000000 | 67 | 71 | 0.0 | 1.0 | 0.00 | 0.17 | 0.17 | 94 | 1011.8 |
| 20260904235455 | 67 | 50 | 0.0 | 2.0 | 0.00 | 0.17 | 0.17 | 94 | 1011.9 |
| 20260904234949 | 67 | 55 | 0.0 | 0.0 | 0.00 | 0.17 | 0.17 | 94 | 1012.0 |
| 20260904234443 | 67 | 50 | 0.0 | 1.0 | 0.00 | 0.17 | 0.17 | 94 | 1011.9 |
| 20260904233940 | 67 | 40 | 0.0 | 1.0 | 0.00 | 0.17 | 0.17 | 94 | 1012.0 |
| 20260904233434 | 68 | 44 | 1.0 | 1.0 | 0.00 | 0.17 | 0.17 | 94 | 1012.1 |
| 20260904232931 | 68 | 299 | 0.0 | 2.0 | 0.00 | 0.17 | 0.17 | 93 | 1012.0 |
| 20260904232427 | 68 | 22 | 0.0 | 1.0 | 0.00 | 0.17 | 0.17 | 93 | 1011.8 |
| 20260904231924 | 68 | 35 | 0.0 | 1.0 | 0.00 | 0.17 | 0.17 | 92 | 1012.0 |
| 20260904231423 | 68 | 37 | 0.0 | 0.0 | 0.00 | 0.17 | 0.17 | 92 | 1012.1 |
| 20260904230918 | 68 | 37 | 0.0 | 0.0 | 0.00 | 0.17 | 0.17 | 91 | 1012.1 |
| 20260904230417 | 69 | 26 | 1.0 | 1.0 | 0.00 | 0.17 | 0.17 | 91 | 1011.9 |
| 20260904225912 | 69 | 30 | 0.0 | 1.0 | 0.00 | 0.17 | 0.17 | 91 | 1011.6 |
| 20260904225410 | 68 | 309 | 0.0 | 1.0 | 0.00 | 0.17 | 0.17 | 90 | 1011.4 |
| 20260904224905 | 69 | 328 | 1.0 | 2.0 | 0.00 | 0.17 | 0.17 | 91 | 1011.8 |
| 20260904224401 | 69 | 343 | 0.0 | 0.0 | 0.00 | 0.17 | 0.17 | 88 | 1011.6 |
| 20260904223900 | 70 | 319 | 1.0 | 2.0 | 0.00 | 0.17 | 0.17 | 89 | 1011.7 |
| 20260904223359 | 70 | 6 | 0.0 | 1.0 | 0.00 | 0.17 | 0.17 | 88 | 1012.0 |
| 20260904222857 | 70 | 353 | 1.0 | 1.0 | 0.00 | 0.17 | 0.17 | 87 | 1011.8 |
| 20260904222356 | 71 | 346 | 1.0 | 2.0 | 0.00 | 0.17 | 0.17 | 84 | 1011.7 |
| 20260904221856 | 72 | 30 | 1.0 | 2.0 | 0.00 | 0.17 | 0.17 | 84 | 1011.6 |
| 20260904221351 | 72 | 318 | 0.0 | 2.0 | 0.00 | 0.17 | 0.17 | 83 | 1011.7 |
| 20260904220846 | 73 | 347 | 2.0 | 2.0 | 0.00 | 0.17 | 0.17 | 78 | 1011.6 |
| 20260904220345 | 72 | 304 | 2.0 | 2.0 | 0.00 | 0.17 | 0.17 | 81 | 1011.5 |
| 20260904215841 | 73 | 326 | 0.0 | 2.0 | 0.00 | 0.17 | 0.17 | 75 | 1011.7 |
| 20260904215336 | 75 | 323 | 1.0 | 1.0 | 0.00 | 0.17 | 0.17 | 72 | 1011.6 |
| 20260904214832 | 76 | 0 | 1.0 | 2.0 | 0.00 | 0.17 | 0.17 | 67 | 1011.6 |
| 20260904214327 | 76 | 357 | 1.0 | 2.0 | 0.00 | 0.17 | 0.17 | 66 | 1011.5 |
| 20260904213825 | 76 | 27 | 1.0 | 3.0 | 0.00 | 0.17 | 0.17 | 68 | 1011.6 |
| 20260904213321 | 75 | 22 | 2.0 | 3.0 | 0.00 | 0.17 | 0.17 | 73 | 1011.6 |
| 20260904212817 | 75 | 355 | 2.0 | 3.0 | 0.00 | 0.17 | 0.17 | 71 | 1011.8 |
| 20260904212312 | 76 | 328 | 1.0 | 3.0 | 0.00 | 0.17 | 0.17 | 71 | 1011.5 |
| 20260904211807 | 76 | 356 | 1.0 | 2.0 | 0.00 | 0.17 | 0.17 | 65 | 1011.6 |
| 20260904211301 | 76 | 10 | 3.0 | 4.0 | 0.00 | 0.17 | 0.17 | 64 | 1011.5 |
| 20260904210756 | 76 | 44 | 0.0 | 3.0 | 0.00 | 0.17 | 0.17 | 65 | 1011.5 |
| 20260904210256 | 77 | 24 | 0.0 | 2.0 | 0.00 | 0.17 | 0.17 | 66 | 1011.7 |
| 20260904205752 | 77 | 6 | 3.0 | 3.0 | 0.00 | 0.17 | 0.17 | 64 | 1011.8 |
| 20260904205248 | 77 | 18 | 1.0 | 3.0 | 0.00 | 0.17 | 0.17 | 66 | 1011.6 |
| 20260904204744 | 77 | 86 | 0.0 | 3.0 | 0.00 | 0.17 | 0.17 | 66 | 1011.7 |
| 20260904204240 | 76 | 359 | 2.0 | 3.0 | 0.00 | 0.17 | 0.17 | 71 | 1011.7 |
| 20260904203736 | 75 | 331 | 2.0 | 2.0 | 0.00 | 0.17 | 0.17 | 71 | 1011.8 |
| 20260904203232 | 75 | 3 | 2.0 | 2.0 | 0.00 | 0.17 | 0.17 | 66 | 1012.0 |
| 20260904202728 | 75 | 6 | 3.0 | 4.0 | 0.00 | 0.17 | 0.17 | 66 | 1012.0 |
| 20260904202225 | 76 | 61 | 1.0 | 3.0 | 0.00 | 0.17 | 0.17 | 66 | 1011.8 |
| 20260904201720 | 76 | 354 | 4.0 | 4.0 | 0.00 | 0.17 | 0.17 | 65 | 1011.9 |
| 20260904201219 | 78 | 2 | 1.0 | 2.0 | 0.00 | 0.17 | 0.17 | 65 | 1012.0 |
| 20260904200714 | 79 | 4 | 1.0 | 1.0 | 0.00 | 0.17 | 0.17 | 62 | 1012.3 |
| 20260904200209 | 77 | 348 | 1.0 | 2.0 | 0.00 | 0.17 | 0.17 | 70 | 1012.4 |
| 20260904195708 | 75 | 6 | 2.0 | 4.0 | 0.00 | 0.17 | 0.17 | 70 | 1012.3 |
| 20260904195201 | 76 | 357 | 3.0 | 3.0 | 0.00 | 0.17 | 0.17 | 65 | 1012.3 |
| 20260904194701 | 78 | 86 | 2.0 | 3.0 | 0.00 | 0.17 | 0.17 | 63 | 1012.1 |
| 20260904194155 | 77 | 307 | 4.0 | 5.0 | 0.00 | 0.17 | 0.17 | 65 | 1012.5 |
| 20260904193651 | 77 | 345 | 3.0 | 3.0 | 0.00 | 0.17 | 0.17 | 64 | 1012.7 |
| 20260904193147 | 76 | 3 | 2.0 | 3.0 | 0.00 | 0.17 | 0.17 | 65 | 1012.5 |
| 20260904192647 | 75 | 299 | 1.0 | 3.0 | 0.00 | 0.17 | 0.17 | 70 | 1012.5 |
| 20260904192142 | 75 | 343 | 0.0 | 2.0 | 0.00 | 0.17 | 0.17 | 65 | 1012.4 |
| 20260904191639 | 76 | 4 | 3.0 | 5.0 | 0.00 | 0.17 | 0.17 | 63 | 1012.6 |
| 20260904191135 | 76 | 349 | 3.0 | 7.0 | 0.00 | 0.17 | 0.17 | 64 | 1012.6 |
| 20260904190630 | 76 | 356 | 3.0 | 4.0 | 0.00 | 0.17 | 0.17 | 68 | 1012.5 |
| 20260904190126 | 75 | 3 | 3.0 | 5.0 | 0.00 | 0.17 | 0.17 | 65 | 1012.7 |
| 20260904185624 | 77 | 356 | 3.0 | 3.0 | 0.00 | 0.17 | 0.17 | 62 | 1012.6 |
| 20260904185118 | 77 | 350 | 1.0 | 2.0 | 0.00 | 0.17 | 0.17 | 66 | 1012.7 |
| 20260904184616 | 77 | 321 | 4.0 | 4.0 | 0.00 | 0.17 | 0.17 | 65 | 1012.7 |
| 20260904184112 | 78 | 7 | 4.0 | 6.0 | 0.00 | 0.17 | 0.17 | 60 | 1012.7 |
| 20260904183608 | 79 | 266 | 7.0 | 9.0 | 0.00 | 0.17 | 0.17 | 59 | 1012.7 |
| 20260904183102 | 79 | 267 | 4.0 | 6.0 | 0.00 | 0.17 | 0.17 | 59 | 1012.8 |
| 20260904182558 | 78 | 284 | 3.0 | 4.0 | 0.00 | 0.17 | 0.17 | 63 | 1012.7 |
| 20260904182052 | 78 | 66 | 3.0 | 4.0 | 0.00 | 0.17 | 0.17 | 61 | 1012.8 |
| 20260904181548 | 79 | 260 | 5.0 | 5.0 | 0.00 | 0.17 | 0.17 | 60 | 1013.0 |
| 20260904181048 | 77 | 8 | 3.0 | 5.0 | 0.00 | 0.17 | 0.17 | 62 | 1013.0 |
| 20260904180543 | 78 | 34 | 2.0 | 6.0 | 0.00 | 0.17 | 0.17 | 61 | 1013.0 |
| 20260904180038 | 78 | 40 | 1.0 | 4.0 | 0.00 | 0.17 | 0.17 | 64 | 1012.9 |
| 20260904175532 | 78 | 309 | 3.0 | 9.0 | 0.00 | 0.17 | 0.17 | 61 | 1013.2 |
| 20260904175031 | 78 | 14 | 4.0 | 4.0 | 0.00 | 0.17 | 0.17 | 63 | 1013.0 |
| 20260904174526 | 77 | 10 | 5.0 | 5.0 | 0.00 | 0.17 | 0.17 | 64 | 1013.4 |
| 20260904174023 | 78 | 14 | 1.0 | 2.0 | 0.00 | 0.17 | 0.17 | 68 | 1013.2 |
| 20260904173522 | 78 | 356 | 2.0 | 9.0 | 0.00 | 0.17 | 0.17 | 64 | 1013.2 |
| 20260904173018 | 76 | 224 | 3.0 | 6.0 | 0.00 | 0.17 | 0.17 | 66 | 1013.3 |
| 20260904172514 | 74 | 35 | 2.0 | 2.0 | 0.00 | 0.17 | 0.17 | 72 | 1013.5 |
| 20260904172012 | 74 | 13 | 2.0 | 3.0 | 0.00 | 0.17 | 0.17 | 73 | 1013.4 |
| 20260904171508 | 76 | 9 | 3.0 | 4.0 | 0.00 | 0.17 | 0.17 | 72 | 1013.3 |
| 20260904171004 | 76 | 18 | 3.0 | 4.0 | 0.00 | 0.17 | 0.17 | 72 | 1013.4 |
| 20260904170459 | 75 | 142 | 0.0 | 3.0 | 0.00 | 0.17 | 0.17 | 73 | 1013.4 |
| 20260904165954 | 74 | 264 | 2.0 | 2.0 | 0.00 | 0.17 | 0.17 | 79 | 1013.5 |
| 20260904165453 | 74 | 12 | 2.0 | 2.0 | 0.00 | 0.17 | 0.17 | 76 | 1013.6 |
| 20260904164953 | 74 | 359 | 2.0 | 3.0 | 0.00 | 0.17 | 0.17 | 74 | 1013.5 |
| 20260904164448 | 75 | 359 | 3.0 | 4.0 | 0.00 | 0.17 | 0.17 | 71 | 1013.5 |
| 20260904163944 | 74 | 29 | 2.0 | 2.0 | 0.00 | 0.17 | 0.17 | 77 | 1013.2 |
| 20260904163438 | 74 | 87 | 3.0 | 4.0 | 0.00 | 0.17 | 0.17 | 77 | 1013.2 |
| 20260904162937 | 75 | 339 | 0.0 | 2.0 | 0.00 | 0.17 | 0.17 | 77 | 1013.1 |
| 20260904162433 | 75 | 254 | 3.0 | 5.0 | 0.00 | 0.17 | 0.17 | 73 | 1013.3 |
| 20260904161928 | 76 | 71 | 0.0 | 3.0 | 0.00 | 0.17 | 0.17 | 72 | 1013.5 |
| 20260904161423 | 74 | 315 | 1.0 | 4.0 | 0.00 | 0.17 | 0.17 | 75 | 1013.6 |
| 20260904160919 | 75 | 45 | 3.0 | 4.0 | 0.00 | 0.17 | 0.17 | 75 | 1013.6 |
| 20260904160414 | 75 | 0 | 3.0 | 3.0 | 0.00 | 0.17 | 0.17 | 76 | 1013.6 |
| 20260904155904 | 76 | 256 | 2.0 | 6.0 | 0.00 | 0.17 | 0.17 | 71 | 1013.6 |
| 20260904155403 | 76 | 329 | 1.0 | 3.0 | 0.00 | 0.17 | 0.17 | 72 | 1013.5 |
| 20260904154902 | 74 | 344 | 2.0 | 7.0 | 0.00 | 0.17 | 0.17 | 78 | 1013.5 |
| 20260904154357 | 73 | 271 | 5.0 | 8.0 | 0.00 | 0.17 | 0.17 | 77 | 1013.4 |
| 20260904153852 | 73 | 311 | 4.0 | 5.0 | 0.00 | 0.17 | 0.17 | 78 | 1013.8 |
| 20260904153348 | 74 | 345 | 1.0 | 4.0 | 0.00 | 0.17 | 0.17 | 76 | 1013.3 |
| 20260904152844 | 74 | 21 | 2.0 | 4.0 | 0.00 | 0.17 | 0.17 | 75 | 1013.5 |
| 20260904152338 | 75 | 6 | 2.0 | 4.0 | 0.00 | 0.17 | 0.17 | 77 | 1013.5 |
| 20260904151833 | 75 | 359 | 2.0 | 4.0 | 0.00 | 0.17 | 0.17 | 75 | 1013.7 |
| 20260904151332 | 74 | 126 | 2.0 | 6.0 | 0.00 | 0.17 | 0.17 | 77 | 1013.7 |
| 20260904150829 | 74 | 345 | 2.0 | 3.0 | 0.00 | 0.17 | 0.17 | 77 | 1013.7 |
| 20260904150323 | 74 | 102 | 2.0 | 3.0 | 0.00 | 0.17 | 0.17 | 78 | 1013.9 |
| 20260904145821 | 73 | 5 | 1.0 | 4.0 | 0.00 | 0.17 | 0.17 | 76 | 1013.6 |
| 20260904145318 | 74 | 349 | 2.0 | 3.0 | 0.00 | 0.17 | 0.17 | 78 | 1013.5 |
| 20260904144813 | 74 | 8 | 2.0 | 2.0 | 0.00 | 0.17 | 0.17 | 79 | 1013.9 |
| 20260904144308 | 75 | 15 | 1.0 | 2.0 | 0.00 | 0.17 | 0.17 | 78 | 1013.6 |
| 20260904143803 | 74 | 4 | 2.0 | 3.0 | 0.00 | 0.17 | 0.17 | 80 | 1013.4 |
| 20260904143300 | 73 | 357 | 3.0 | 4.0 | 0.00 | 0.17 | 0.17 | 79 | 1013.7 |
| 20260904142756 | 73 | 19 | 0.0 | 4.0 | 0.00 | 0.17 | 0.17 | 79 | 1013.6 |
| 20260904142252 | 73 | 0 | 2.0 | 3.0 | 0.00 | 0.17 | 0.17 | 82 | 1013.7 |
| 20260904141752 | 73 | 10 | 3.0 | 4.0 | 0.00 | 0.17 | 0.17 | 81 | 1013.4 |
| 20260904141247 | 72 | 59 | 0.0 | 4.0 | 0.00 | 0.17 | 0.17 | 83 | 1013.6 |
| 20260904140742 | 72 | 68 | 4.0 | 4.0 | 0.00 | 0.17 | 0.17 | 84 | 1013.5 |
| 20260904140238 | 72 | 328 | 4.0 | 4.0 | 0.00 | 0.17 | 0.17 | 85 | 1013.8 |
| 20260904135736 | 71 | 356 | 3.0 | 5.0 | 0.00 | 0.17 | 0.17 | 85 | 1013.7 |
| 20260904135232 | 71 | 334 | 2.0 | 6.0 | 0.00 | 0.17 | 0.17 | 85 | 1013.7 |
| 20260904134728 | 71 | 358 | 2.0 | 3.0 | 0.00 | 0.17 | 0.17 | 87 | 1013.8 |
| 20260904134227 | 70 | 306 | 5.0 | 5.0 | 0.00 | 0.17 | 0.17 | 85 | 1013.8 |
| 20260904133722 | 71 | 33 | 1.0 | 4.0 | 0.00 | 0.17 | 0.17 | 85 | 1013.5 |
| 20260904133219 | 70 | 325 | 0.0 | 4.0 | 0.00 | 0.17 | 0.17 | 87 | 1013.5 |
| 20260904132718 | 71 | 13 | 2.0 | 3.0 | 0.00 | 0.17 | 0.17 | 88 | 1013.2 |
| 20260904132214 | 71 | 5 | 4.0 | 4.0 | 0.00 | 0.17 | 0.17 | 87 | 1013.8 |
| 20260904131713 | 72 | 11 | 1.0 | 3.0 | 0.00 | 0.17 | 0.17 | 87 | 1013.4 |
| 20260904131209 | 70 | 2 | 2.0 | 2.0 | 0.00 | 0.17 | 0.17 | 91 | 1013.6 |
| 20260904130709 | 69 | 13 | 2.0 | 4.0 | 0.00 | 0.17 | 0.17 | 89 | 1013.3 |
| 20260904130208 | 70 | 29 | 1.0 | 2.0 | 0.00 | 0.17 | 0.17 | 89 | 1013.5 |
| 20260904125704 | 69 | 356 | 2.0 | 3.0 | 0.00 | 0.17 | 0.17 | 90 | 1013.5 |
| 20260904125159 | 69 | 9 | 0.0 | 3.0 | 0.00 | 0.17 | 0.17 | 92 | 1013.7 |
| 20260904124654 | 68 | 302 | 2.0 | 4.0 | 0.00 | 0.17 | 0.17 | 93 | 1013.6 |
| 20260904124150 | 69 | 346 | 2.0 | 3.0 | 0.00 | 0.17 | 0.17 | 93 | 1013.5 |
| 20260904123644 | 68 | 318 | 0.0 | 3.0 | 0.00 | 0.17 | 0.17 | 94 | 1013.9 |
| 20260904123140 | 68 | 350 | 0.0 | 2.0 | 0.00 | 0.17 | 0.17 | 96 | 1013.6 |
| 20260904122640 | 67 | 347 | 1.0 | 3.0 | 0.00 | 0.17 | 0.17 | 98 | 1013.4 |
| 20260904122135 | 67 | 13 | 0.0 | 2.0 | 0.00 | 0.17 | 0.17 | 99 | 1013.4 |
| 20260904121630 | 66 | 35 | 2.0 | 2.0 | 0.00 | 0.17 | 0.17 | 99 | 1013.4 |
| 20260904121126 | 66 | 66 | 2.0 | 2.0 | 0.00 | 0.17 | 0.17 | 99 | 1013.5 |
| 20260904120623 | 67 | 124 | 0.0 | 1.0 | 0.00 | 0.17 | 0.17 | 99 | 1013.6 |
| 20260904120119 | 65 | 31 | 2.0 | 2.0 | 0.00 | 0.17 | 0.17 | 99 | 1013.4 |
| 20260904115618 | 65 | 351 | 1.0 | 2.0 | 0.00 | 0.17 | 0.17 | 99 | 1013.6 |
| 20260904115113 | 65 | 50 | 0.0 | 2.0 | 0.00 | 0.17 | 0.17 | 99 | 1013.4 |
| 20260904114608 | 66 | 22 | 0.0 | 1.0 | 0.00 | 0.17 | 0.17 | 99 | 1013.2 |
| 20260904114103 | 66 | 89 | 0.0 | 0.0 | 0.00 | 0.17 | 0.17 | 99 | 1013.6 |
| 20260904113603 | 65 | 39 | 1.0 | 2.0 | 0.00 | 0.17 | 0.17 | 99 | 1013.2 |
| 20260904113102 | 65 | 80 | 2.0 | 2.0 | 0.00 | 0.17 | 0.17 | 99 | 1013.4 |
| 20260904112557 | 65 | 39 | 1.0 | 2.0 | 0.00 | 0.17 | 0.17 | 99 | 1013.4 |
| 20260904112053 | 65 | 48 | 2.0 | 3.0 | 0.00 | 0.17 | 0.17 | 99 | 1013.3 |
| 20260904111549 | 65 | 43 | 0.0 | 2.0 | 0.00 | 0.17 | 0.17 | 99 | 1013.3 |
| 20260904111044 | 65 | 358 | 1.0 | 2.0 | 0.00 | 0.17 | 0.17 | 99 | 1013.3 |
| 20260904110543 | 65 | 20 | 2.0 | 2.0 | 0.00 | 0.17 | 0.17 | 99 | 1013.2 |
| 20260904110034 | 65 | 14 | 1.0 | 2.0 | 0.00 | 0.17 | 0.17 | 99 | 1013.1 |
| 20260904105527 | 65 | 28 | 2.0 | 2.0 | 0.00 | 0.17 | 0.17 | 99 | 1012.9 |
| 20260904105023 | 65 | 11 | 2.0 | 2.0 | 0.00 | 0.17 | 0.17 | 99 | 1013.0 |
| 20260904104518 | 65 | 15 | 2.0 | 3.0 | 0.00 | 0.17 | 0.17 | 99 | 1013.2 |
| 20260904104014 | 65 | 45 | 2.0 | 2.0 | 0.00 | 0.17 | 0.17 | 99 | 1013.2 |
| 20260904103509 | 66 | 11 | 2.0 | 2.0 | 0.00 | 0.17 | 0.17 | 99 | 1013.2 |
| 20260904103005 | 66 | 214 | 0.0 | 1.0 | 0.00 | 0.17 | 0.17 | 99 | 1012.9 |
| 20260904102501 | 66 | 33 | 0.0 | 2.0 | 0.00 | 0.17 | 0.17 | 99 | 1012.8 |
| 20260904101955 | 66 | 48 | 1.0 | 2.0 | 0.00 | 0.17 | 0.17 | 99 | 1012.8 |
| 20260904101453 | 66 | 322 | 0.0 | 0.0 | 0.00 | 0.17 | 0.17 | 99 | 1012.9 |
| 20260904100948 | 66 | 50 | 0.0 | 1.0 | 0.00 | 0.17 | 0.17 | 99 | 1012.7 |
| 20260904100444 | 66 | 11 | 1.0 | 2.0 | 0.00 | 0.17 | 0.17 | 99 | 1012.9 |
| 20260904095943 | 66 | 43 | 2.0 | 2.0 | 0.00 | 0.17 | 0.17 | 99 | 1012.8 |
| 20260904095439 | 66 | 55 | 0.0 | 1.0 | 0.00 | 0.17 | 0.17 | 99 | 1012.7 |
| 20260904094938 | 66 | 66 | 1.0 | 2.0 | 0.00 | 0.17 | 0.17 | 99 | 1012.8 |
| 20260904094434 | 66 | 19 | 1.0 | 1.0 | 0.00 | 0.17 | 0.17 | 99 | 1012.7 |
| 20260904093924 | 66 | 23 | 1.0 | 2.0 | 0.00 | 0.17 | 0.17 | 99 | 1012.8 |
| 20260904093419 | 66 | 55 | 1.0 | 2.0 | 0.00 | 0.17 | 0.17 | 99 | 1012.7 |
| 20260904092909 | 66 | 48 | 0.0 | 1.0 | 0.00 | 0.17 | 0.17 | 99 | 1012.6 |
| 20260904092406 | 66 | 54 | 0.0 | 1.0 | 0.00 | 0.17 | 0.17 | 99 | 1012.5 |
| 20260904091902 | 66 | 126 | 0.0 | 2.0 | 0.00 | 0.17 | 0.17 | 99 | 1012.6 |
| 20260904091357 | 66 | 106 | 0.0 | 1.0 | 0.00 | 0.17 | 0.17 | 99 | 1012.8 |
| 20260904090852 | 66 | 133 | 2.0 | 2.0 | 0.00 | 0.17 | 0.17 | 99 | 1012.6 |
| 20260904090347 | 66 | 49 | 0.0 | 1.0 | 0.00 | 0.17 | 0.17 | 99 | 1012.6 |
| 20260904085843 | 66 | 12 | 0.0 | 1.0 | 0.00 | 0.17 | 0.17 | 99 | 1012.6 |
| 20260904085337 | 66 | 57 | 1.0 | 2.0 | 0.00 | 0.17 | 0.17 | 99 | 1012.6 |
| 20260904084832 | 66 | 16 | 1.0 | 2.0 | 0.00 | 0.17 | 0.17 | 99 | 1012.5 |
| 20260904084328 | 66 | 85 | 2.0 | 2.0 | 0.00 | 0.17 | 0.17 | 99 | 1012.5 |
| 20260904083824 | 66 | 114 | 2.0 | 2.0 | 0.00 | 0.17 | 0.17 | 99 | 1012.3 |
| 20260904083320 | 67 | 214 | 0.0 | 2.0 | 0.00 | 0.17 | 0.17 | 99 | 1012.4 |
| 20260904082815 | 67 | 239 | 1.0 | 1.0 | 0.00 | 0.17 | 0.17 | 99 | 1012.3 |
| 20260904082310 | 67 | 142 | 0.0 | 0.0 | 0.00 | 0.17 | 0.17 | 99 | 1012.2 |
| 20260904081805 | 67 | 89 | 0.0 | 1.0 | 0.00 | 0.17 | 0.17 | 99 | 1012.2 |
| 20260904081301 | 67 | 11 | 1.0 | 1.0 | 0.00 | 0.17 | 0.17 | 99 | 1012.0 |
| 20260904080756 | 67 | 336 | 0.0 | 1.0 | 0.00 | 0.17 | 0.17 | 99 | 1011.7 |
| 20260904080251 | 67 | 29 | 0.0 | 0.0 | 0.00 | 0.17 | 0.17 | 99 | 1011.8 |
| 20260904075748 | 67 | 19 | 0.0 | 1.0 | 0.00 | 0.17 | 0.17 | 99 | 1011.9 |
| 20260904075242 | 67 | 135 | 0.0 | 0.0 | 0.00 | 0.17 | 0.17 | 99 | 1011.8 |
| 20260904074742 | 67 | 50 | 0.0 | 0.0 | 0.00 | 0.17 | 0.17 | 99 | 1011.7 |
| 20260904074236 | 67 | 45 | 0.0 | 0.0 | 0.00 | 0.17 | 0.17 | 99 | 1011.7 |
| 20260904073731 | 67 | 37 | 0.0 | 0.0 | 0.00 | 0.17 | 0.17 | 99 | 1011.6 |
| 20260904073222 | 67 | 10 | 1.0 | 2.0 | 0.00 | 0.17 | 0.17 | 99 | 1011.6 |
| 20260904072718 | 67 | 78 | 2.0 | 2.0 | 0.00 | 0.17 | 0.17 | 99 | 1011.4 |
| 20260904072212 | 67 | 64 | 0.0 | 1.0 | 0.00 | 0.17 | 0.17 | 99 | 1011.5 |
| 20260904071708 | 67 | 129 | 0.0 | 0.0 | 0.00 | 0.17 | 0.17 | 99 | 1011.7 |
| 20260904071203 | 67 | 22 | 0.0 | 0.0 | 0.00 | 0.17 | 0.17 | 99 | 1011.6 |
| 20260904070702 | 67 | 37 | 0.0 | 1.0 | 0.00 | 0.17 | 0.17 | 99 | 1011.5 |
| 20260904070201 | 68 | 72 | 1.0 | 1.0 | 0.00 | 0.17 | 0.17 | 99 | 1011.3 |
| 20260904065656 | 68 | 309 | 0.0 | 0.0 | 0.00 | 0.17 | 0.17 | 99 | 1011.5 |
| 20260904065154 | 68 | 304 | 0.0 | 0.0 | 0.00 | 0.17 | 0.17 | 99 | 1011.7 |
| 20260904064653 | 68 | 296 | 0.0 | 1.0 | 0.00 | 0.17 | 0.17 | 99 | 1011.6 |
| 20260904064149 | 68 | 309 | 0.0 | 0.0 | 0.00 | 0.17 | 0.17 | 99 | 1011.5 |
| 20260904063644 | 67 | 50 | 0.0 | 0.0 | 0.00 | 0.17 | 0.17 | 99 | 1011.4 |
| 20260904063140 | 68 | 37 | 0.0 | 0.0 | 0.00 | 0.17 | 0.17 | 99 | 1011.7 |
| 20260904062636 | 68 | 35 | 0.0 | 2.0 | 0.00 | 0.17 | 0.17 | 99 | 1011.6 |
| 20260904062132 | 68 | 15 | 1.0 | 1.0 | 0.00 | 0.17 | 0.17 | 99 | 1011.7 |
| 20260904061627 | 68 | 321 | 0.0 | 1.0 | 0.00 | 0.17 | 0.17 | 99 | 1011.6 |
| 20260904061123 | 68 | 50 | 0.0 | 0.0 | 0.00 | 0.17 | 0.17 | 99 | 1011.5 |
| 20260904060620 | 68 | 89 | 0.0 | 1.0 | 0.00 | 0.17 | 0.17 | 99 | 1011.6 |
| 20260904060115 | 68 | 66 | 0.0 | 1.0 | 0.00 | 0.17 | 0.17 | 99 | 1011.9 |
| 20260904055610 | 68 | 62 | 1.0 | 1.0 | 0.00 | 0.17 | 0.17 | 99 | 1011.7 |
| 20260904055105 | 68 | 41 | 1.0 | 2.0 | 0.00 | 0.17 | 0.17 | 99 | 1011.9 |
| 20260904054601 | 69 | 16 | 1.0 | 2.0 | 0.00 | 0.17 | 0.17 | 99 | 1011.9 |
| 20260904054056 | 69 | 0 | 0.0 | 1.0 | 0.00 | 0.17 | 0.17 | 99 | 1011.7 |
| 20260904053556 | 69 | 76 | 0.0 | 1.0 | 0.00 | 0.17 | 0.17 | 99 | 1012.0 |
| 20260904053051 | 69 | 52 | 0.0 | 2.0 | 0.00 | 0.17 | 0.17 | 99 | 1011.8 |
| 20260904052548 | 69 | 32 | 0.0 | 1.0 | 0.00 | 0.17 | 0.17 | 99 | 1011.8 |
| 20260904052044 | 69 | 304 | 0.0 | 2.0 | 0.00 | 0.17 | 0.17 | 99 | 1011.9 |
| 20260904051540 | 70 | 37 | 0.0 | 1.0 | 0.00 | 0.17 | 0.17 | 99 | 1011.8 |
| 20260904051039 | 70 | 50 | 0.0 | 2.0 | 0.00 | 0.17 | 0.17 | 99 | 1012.2 |
| 20260904050535 | 70 | 21 | 1.0 | 2.0 | 0.00 | 0.17 | 0.17 | 99 | 1012.2 |
| 20260904050031 | 70 | 322 | 0.0 | 0.0 | 0.02 | 0.17 | 0.17 | 99 | 1012.1 |
| 20260904045526 | 70 | 358 | 1.0 | 2.0 | 0.00 | 0.16 | 0.16 | 99 | 1012.2 |
| 20260904045021 | 70 | 126 | 1.0 | 3.0 | 0.00 | 0.16 | 0.16 | 99 | 1012.2 |
| 20260904044517 | 70 | 343 | 0.0 | 0.0 | 0.00 | 0.16 | 0.16 | 99 | 1012.4 |
| 20260904044013 | 70 | 29 | 0.0 | 2.0 | 0.00 | 0.16 | 0.16 | 99 | 1012.4 |
| 20260904043509 | 70 | 33 | 1.0 | 2.0 | 0.02 | 0.16 | 0.16 | 99 | 1012.3 |
| 20260904043004 | 70 | 18 | 2.0 | 2.0 | 0.17 | 0.16 | 0.16 | 99 | 1012.4 |
| 20260904042500 | 70 | 249 | 0.0 | 2.0 | 0.47 | 0.16 | 0.16 | 99 | 1012.2 |
| 20260904041949 | 70 | 76 | 2.0 | 2.0 | 0.45 | 0.12 | 0.12 | 99 | 1012.4 |
| 20260904041446 | 70 | 75 | 2.0 | 2.0 | 0.21 | 0.07 | 0.07 | 99 | 1012.3 |
| 20260904040941 | 71 | 29 | 1.0 | 2.0 | 0.28 | 0.05 | 0.05 | 99 | 1012.6 |
| 20260904040441 | 71 | 135 | 0.0 | 2.0 | 0.66 | 0.03 | 0.03 | 99 | 1012.5 |
| 20260904035937 | 70 | 87 | 1.0 | 4.0 | 0.57 | 0.41 | 0.41 | 99 | 1012.1 |
| 20260904035433 | 70 | 15 | 0.0 | 1.0 | 0.21 | 0.33 | 0.33 | 99 | 1012.7 |
| 20260904034932 | 71 | 118 | 2.0 | 2.0 | 0.26 | 0.32 | 0.32 | 99 | 1012.1 |
| 20260904034427 | 70 | 278 | 1.0 | 1.0 | 0.21 | 0.29 | 0.29 | 99 | 1012.4 |
| 20260904033923 | 70 | 336 | 0.0 | 2.0 | 0.19 | 0.27 | 0.27 | 99 | 1012.4 |
| 20260904033419 | 70 | 62 | 0.0 | 2.0 | 0.12 | 0.26 | 0.26 | 99 | 1012.2 |
| 20260904032915 | 70 | 50 | 0.0 | 0.0 | 0.07 | 0.24 | 0.24 | 99 | 1012.4 |
| 20260904032410 | 70 | 66 | 0.0 | 0.0 | 0.07 | 0.24 | 0.24 | 99 | 1012.2 |
| 20260904031904 | 70 | 62 | 0.0 | 1.0 | 0.02 | 0.22 | 0.22 | 99 | 1012.1 |
| 20260904031400 | 70 | 318 | 2.0 | 2.0 | 0.07 | 0.22 | 0.22 | 99 | 1012.1 |
| 20260904030856 | 70 | 352 | 0.0 | 0.0 | 0.12 | 0.22 | 0.22 | 99 | 1012.0 |
| 20260904030351 | 70 | 19 | 0.0 | 0.0 | 0.09 | 0.21 | 0.21 | 99 | 1012.2 |
| 20260904025847 | 70 | 359 | 2.0 | 2.0 | 0.09 | 0.20 | 0.20 | 99 | 1012.2 |
| 20260904025342 | 70 | 62 | 0.0 | 1.0 | 0.05 | 0.19 | 0.19 | 99 | 1012.2 |
| 20260904024842 | 70 | 15 | 1.0 | 2.0 | 0.00 | 0.18 | 0.18 | 99 | 1012.2 |